AirNav   ProFlight Series 2 Aviation Headset
 
 1136 users online  

2XA0 Foard County Airport
Crowell, Texas, USA

GOING TO CROWELL?


FAA INFORMATION EFFECTIVE 16 JULY 2020

Location

FAA Identifier: 2XA0
Lat/Long: 33-58-45.3030N 099-42-46.3350W
33-58.755050N 099-42.772250W
33.9792508,-99.7128708
(estimated)
Elevation: 1479 ft. / 450.8 m (surveyed)
Variation: 08E (1985)
From city: 1 mile E of CROWELL, TX
Time zone: UTC -5 (UTC -6 during Standard Time)
Zip code: 79227

Airport Operations

Airport use: Private use. Permission required prior to landing
Activation date: 10/1946
Control tower: no
ARTCC: FORT WORTH CENTER
FSS: FORT WORTH FLIGHT SERVICE STATION
Attendance: UNATNDD
Wind indicator: yes
Segmented circle: yes
Beacon: white-green (lighted land airport)
ROTG BCN OTS INDEFLY. Operates sunset to sunrise.

Nearby radio navigation aids

VOR radial/distance  VOR name  Freq  Var
CDSr119/36.9CHILDRESS VORTAC117.0010E

Airport Services

Parking: tiedowns
Airframe service: NONE
Powerplant service: NONE
Bottled oxygen: NONE
Bulk oxygen: NONE

Runway Information

Runway 17/35

Dimensions: 3200 x 39 ft. / 975 x 12 m
Surface: asphalt, in poor condition
RY PAVEMENT HAS GRASS ENCROACHMENT.
Weight bearing capacity: 
Single wheel: 8.0
Runway edge lights: medium intensity
MIRL OTS INDEFLY.
Runway edge markings: RY MARKINGS FADED.
RUNWAY 17  RUNWAY 35
Traffic pattern: leftleft
Markings: basic, in poor conditionbasic, in poor condition
Obstructions: 15 ft. road, 490 ft. from runway, 19:1 slope to clearnone
+10 FT TREE 55 FT LEFT 135 FT SOUTH OF THLD.

Airport Ownership and Management from official FAA records

Ownership: Publicly-owned
Owner: FOARD COUNTY
COUNTY COURTHOUSE, PO BOX 660
CROWELL, TX 79227
Phone 940-684-1424
Manager: MARK CHRISTOPHER
COUNTY COURTHOUSE, PO BOX 660
CROWELL, TX 79227
Phone 940-684-1424

Airport Operational Statistics

Aircraft operations: avg 42/month *
100% transient general aviation
* for 12-month period ending 17 February 2004

Additional Remarks

ARPT CLSD NIGHTS.
FOR CD CTC FORT WORTH ARTCC AT 817-858-7584.

Instrument Procedures

There are no published instrument procedures at 2XA0.

Some nearby airports with instrument procedures:

F05 - Wilbarger County Airport (26 nm NE)
3F6 - Dan E Richards Municipal Airport (28 nm W)
60F - Seymour Municipal Airport (30 nm SE)
KCDS - Childress Municipal Airport (39 nm NW)
KFDR - Frederick Regional Airport (43 nm NE)
 
Loc | Ops | Rwys | IFR | FBO | Links
Com | Nav | Svcs | Stats | Notes

AirBoss

 
Area around 2XA0 (Foard County Airport)
 
Road maps at: MapQuest Bing Google
 
Aerial photo
No photo
 
Sectional chart

 
Airport distance calculator
Flying to Foard County Airport? Find the distance to fly.

From to 2XA0

Sunrise and sunset
Times for 10-Aug-2020
 Local
(UTC-5)
 Zulu
(UTC)
Morning civil twilight06:3211:32
Sunrise06:5911:59
Sunset20:2901:29
Evening civil twilight20:5601:56

Current date and time
Zulu (UTC)  10-Aug-2020 23:24:40
Local (UTC-5)  10-Aug-2020 18:24:40
 
METAR
KF05 
26nm NE 
102255Z AUTO 19016G19KT 10SM CLR 39/14 A2986 RMK AO1 T03940136
KCDS 
39nm NW 
102253Z AUTO 19012KT 10SM CLR 38/15 A2988 RMK AO2 SLP086 T03780150
KFDR 
43nm NE 
102253Z AUTO 16015G20KT 10SM CLR 38/18 A2983 RMK AO2 SLP079 T03780178
KLTS 
47nm NE 
102256Z AUTO 19017G24KT 10SM CLR 38/13 A2986 RMK AO2 PK WND 18028/46 SLP093 T03820127 $
KAXS 
47nm NE 
102255Z AUTO 19009KT 5SM HZ CLR 37/16 A2988 RMK AO2 T03660156
TAF
KCDS 
39nm NW 
101925Z 1019/1118 18015KT P6SM FEW110 FM110900 20011KT P6SM SCT250
KLTS 
47nm NE 
101700Z 1017/1123 19015G25KT 9999 FEW100 QNH2979INS BECMG 1100/1101 16009KT 9999 FEW100 510052 QNH2980INS BECMG 1103/1104 15009KT 9999 VCSH SCT080 510052 QNH2983INS BECMG 1106/1107 14009KT 9999 NSW FEW120 510052 QNH2984INS BECMG 1113/1114 19012G22KT 9999 SCT090 QNH2990INS TX38/1021Z TN25/1112Z
NOTAMs
Click for the latest NOTAMs
NOTAMs are issued by the DoD/FAA and will open in a separate window not controlled by AirNav.

 

 
 

Would you like to see your business listed on this page?

 If your business provides an interesting product or service to pilots, flight crews, aircraft, or users of the Foard County Airport, you should consider listing it here.  To start the listing process, click on the button below
 
Add a business
 

Other Pages about Foard County Airport

Update a link
 
Copyright © AirNav, LLC. All rights reserved. Privacy Policy  Contact